Year,Month,Day,Hour,Minute,Value (Times are PST for temperature in C)
2017,06,27,10,19,14.70
2017,06,27,10,20,14.60
2017,06,27,10,21,14.70
2017,06,27,10,22,14.70
2017,06,27,10,23,14.70
2017,06,27,10,24,14.70
2017,06,27,10,25,14.70
2017,06,27,10,26,14.70
2017,06,27,10,27,14.60
2017,06,27,10,28,14.50
2017,06,27,10,29,14.40
2017,06,27,10,30,14.40
2017,06,27,10,31,14.40
2017,06,27,10,32,14.40
2017,06,27,10,33,14.40
2017,06,27,10,34,14.30
2017,06,27,10,35,14.30
2017,06,27,10,36,14.40
2017,06,27,10,37,14.40
2017,06,27,10,38,14.40
2017,06,27,10,39,14.40
2017,06,27,10,40,14.40
2017,06,27,10,41,14.40
2017,06,27,10,42,14.40
2017,06,27,10,43,14.40
2017,06,27,10,44,14.40
2017,06,27,10,45,14.20
2017,06,27,10,46,14.20
2017,06,27,10,47,14.20
2017,06,27,10,48,14.20
2017,06,27,10,49,14.10
2017,06,27,10,50,14.20
2017,06,27,10,51,14.20
2017,06,27,10,52,14.10
2017,06,27,10,53,14.10
2017,06,27,10,54,14.10
2017,06,27,10,55,14.10
2017,06,27,10,56,14.00
2017,06,27,10,57,14.00
2017,06,27,10,58,14.00
2017,06,27,10,59,14.00
2017,06,27,11,00,14.00
2017,06,27,11,01,14.00
2017,06,27,11,02,14.00
2017,06,27,11,03,14.00
2017,06,27,11,04,14.10
2017,06,27,11,05,14.20
2017,06,27,11,06,14.20
2017,06,27,11,07,14.20
2017,06,27,11,08,14.20
2017,06,27,11,09,14.20
2017,06,27,11,10,14.20
2017,06,27,11,11,14.20
2017,06,27,11,12,14.20
2017,06,27,11,13,14.20
2017,06,27,11,14,14.20
2017,06,27,11,15,14.20
2017,06,27,11,16,14.20
2017,06,27,11,17,14.20
2017,06,27,11,18,14.30
2017,06,27,11,19,14.30
2017,06,27,11,20,14.30
2017,06,27,11,21,14.30
2017,06,27,11,22,14.30
2017,06,27,11,23,14.30
2017,06,27,11,24,14.30
2017,06,27,11,25,14.30
2017,06,27,11,26,14.30
2017,06,27,11,27,14.50
2017,06,27,11,28,14.60
2017,06,27,11,29,14.70
2017,06,27,11,30,14.80
2017,06,27,11,31,14.80
2017,06,27,11,32,15.00
2017,06,27,11,33,15.10
2017,06,27,11,34,15.20
2017,06,27,11,35,15.20
2017,06,27,11,36,15.20
2017,06,27,11,37,15.20
2017,06,27,11,38,15.20
2017,06,27,11,39,15.20
2017,06,27,11,40,15.10
2017,06,27,11,41,15.10
2017,06,27,11,42,15.10
2017,06,27,11,43,15.20
2017,06,27,11,44,15.30
2017,06,27,11,45,15.30
2017,06,27,11,46,15.20
2017,06,27,11,47,15.10
2017,06,27,11,48,15.10
2017,06,27,11,49,15.10
2017,06,27,11,50,15.00
2017,06,27,11,51,15.10
2017,06,27,11,52,15.10
2017,06,27,11,53,15.10
2017,06,27,11,54,15.20
2017,06,27,11,55,15.30
2017,06,27,11,56,15.40
2017,06,27,11,57,15.50
2017,06,27,11,58,15.50
2017,06,27,11,59,15.60
2017,06,27,12,00,15.60
2017,06,27,12,01,15.60
2017,06,27,12,02,15.70
2017,06,27,12,03,15.80
2017,06,27,12,04,15.80
2017,06,27,12,05,15.60
2017,06,27,12,06,15.60
2017,06,27,12,07,15.50
2017,06,27,12,08,15.50
2017,06,27,12,09,15.30
2017,06,27,12,10,15.20
2017,06,27,12,11,15.30
2017,06,27,12,12,15.30
2017,06,27,12,13,15.40
2017,06,27,12,14,15.50
2017,06,27,12,15,15.70
2017,06,27,12,16,15.80
2017,06,27,12,17,15.90
2017,06,27,12,18,15.90
2017,06,27,12,19,16.00
2017,06,27,12,20,16.10
2017,06,27,12,21,15.90
2017,06,27,12,22,16.00
2017,06,27,12,23,16.20
2017,06,27,12,24,16.20
2017,06,27,12,25,16.20
2017,06,27,12,26,16.10
2017,06,27,12,27,16.00
2017,06,27,12,28,15.90
2017,06,27,12,29,15.90
2017,06,27,12,30,16.00
2017,06,27,12,31,16.00
2017,06,27,12,32,15.90
2017,06,27,12,33,16.00
2017,06,27,12,34,15.90
2017,06,27,12,35,15.90
2017,06,27,12,36,15.90
2017,06,27,12,37,15.90
2017,06,27,12,38,15.80
2017,06,27,12,39,15.80
2017,06,27,12,40,15.90
2017,06,27,12,41,15.90
2017,06,27,12,42,15.80
2017,06,27,12,43,15.80
2017,06,27,12,44,15.80
2017,06,27,12,45,15.80
2017,06,27,12,46,15.80
2017,06,27,12,47,15.90
2017,06,27,12,48,16.10
2017,06,27,12,49,16.20
2017,06,27,12,50,16.30
2017,06,27,12,51,16.30
2017,06,27,12,52,16.40
2017,06,27,12,53,16.40
2017,06,27,12,54,16.40
2017,06,27,12,55,16.40
2017,06,27,12,56,16.40
2017,06,27,12,57,16.40
2017,06,27,12,58,16.50
2017,06,27,12,59,16.40
2017,06,27,13,00,16.30
2017,06,27,13,01,16.10
2017,06,27,13,02,16.10
2017,06,27,13,03,16.10
2017,06,27,13,04,16.10
2017,06,27,13,05,16.00
2017,06,27,13,06,15.90
2017,06,27,13,07,16.00
2017,06,27,13,08,16.10
2017,06,27,13,09,16.10
2017,06,27,13,10,16.20
2017,06,27,13,11,16.20
2017,06,27,13,12,16.10
2017,06,27,13,13,16.10
2017,06,27,13,14,16.00
2017,06,27,13,15,15.90
2017,06,27,13,16,15.90
2017,06,27,13,17,15.90
2017,06,27,13,18,15.80
2017,06,27,13,19,15.60
2017,06,27,13,20,15.60
2017,06,27,13,21,15.50
2017,06,27,13,22,15.40
2017,06,27,13,23,15.40
2017,06,27,13,24,15.30
2017,06,27,13,25,15.30
2017,06,27,13,26,15.30
2017,06,27,13,27,15.30
2017,06,27,13,28,15.20
2017,06,27,13,29,15.10
2017,06,27,13,30,15.00
2017,06,27,13,31,15.10
2017,06,27,13,32,15.20
2017,06,27,13,33,15.30
2017,06,27,13,34,15.30
2017,06,27,13,35,15.30
2017,06,27,13,36,15.20
2017,06,27,13,37,15.10
2017,06,27,13,38,15.00
2017,06,27,13,39,15.00
2017,06,27,13,40,14.90
2017,06,27,13,41,14.70
2017,06,27,13,42,14.50
2017,06,27,13,43,14.50
2017,06,27,13,44,14.60
2017,06,27,13,45,14.60
2017,06,27,13,46,14.60
2017,06,27,13,47,14.70
2017,06,27,13,48,14.60
2017,06,27,13,49,14.60
2017,06,27,13,50,14.60
2017,06,27,13,51,14.60
2017,06,27,13,52,14.70
2017,06,27,13,53,14.70
2017,06,27,13,54,14.60
2017,06,27,13,55,14.50
2017,06,27,13,56,14.50
2017,06,27,13,57,14.50
2017,06,27,13,58,14.60
2017,06,27,13,59,14.50
2017,06,27,14,00,14.60
2017,06,27,14,01,14.70
2017,06,27,14,02,14.80
2017,06,27,14,03,14.90
2017,06,27,14,04,15.00
2017,06,27,14,05,15.10
2017,06,27,14,06,15.30
2017,06,27,14,07,15.50
2017,06,27,14,08,15.60
2017,06,27,14,09,15.70
2017,06,27,14,10,15.90
2017,06,27,14,11,16.10
2017,06,27,14,12,16.10
2017,06,27,14,13,16.10
2017,06,27,14,14,16.30
2017,06,27,14,15,16.40
2017,06,27,14,16,16.60
2017,06,27,14,17,16.80
2017,06,27,14,18,16.90
2017,06,27,14,19,16.90
2017,06,27,14,20,16.80
2017,06,27,14,21,16.70
2017,06,27,14,22,16.70
2017,06,27,14,23,16.70
2017,06,27,14,24,16.70
2017,06,27,14,25,16.70
2017,06,27,14,26,16.70
2017,06,27,14,27,16.70
2017,06,27,14,28,16.60
2017,06,27,14,29,16.50
2017,06,27,14,30,16.40
2017,06,27,14,31,16.40
2017,06,27,14,32,16.50
2017,06,27,14,33,16.60
2017,06,27,14,34,16.70
2017,06,27,14,35,16.70
2017,06,27,14,36,16.80
2017,06,27,14,37,16.80
2017,06,27,14,38,16.80
2017,06,27,14,39,16.90
2017,06,27,14,40,17.00
2017,06,27,14,41,17.10
2017,06,27,14,42,17.20
2017,06,27,14,43,17.30
2017,06,27,14,44,17.30
2017,06,27,14,45,17.30
2017,06,27,14,46,17.30
2017,06,27,14,47,17.30
2017,06,27,14,48,17.40
2017,06,27,14,49,17.50
2017,06,27,14,50,17.50
2017,06,27,14,51,17.40
2017,06,27,14,52,17.40
2017,06,27,14,53,17.40
2017,06,27,14,54,17.30
2017,06,27,14,55,17.40
2017,06,27,14,56,17.50
2017,06,27,14,57,17.50
2017,06,27,14,58,17.50
2017,06,27,14,59,17.60
2017,06,27,15,00,17.70
2017,06,27,15,01,17.80
2017,06,27,15,02,17.90
2017,06,27,15,03,17.90
2017,06,27,15,04,17.80
2017,06,27,15,05,17.80
2017,06,27,15,06,17.90
2017,06,27,15,07,18.00
2017,06,27,15,08,18.20
2017,06,27,15,09,18.30
2017,06,27,15,10,18.40
2017,06,27,15,11,18.40
2017,06,27,15,12,18.60
2017,06,27,15,13,18.70
2017,06,27,15,14,18.90
2017,06,27,15,15,18.90
2017,06,27,15,16,18.80
2017,06,27,15,17,18.70
2017,06,27,15,18,18.60
2017,06,27,15,19,18.50
2017,06,27,15,20,18.40
2017,06,27,15,21,18.30
2017,06,27,15,22,18.20
2017,06,27,15,23,18.30
2017,06,27,15,24,18.30
2017,06,27,15,25,18.30
2017,06,27,15,26,18.40
2017,06,27,15,27,18.40
2017,06,27,15,28,18.40
2017,06,27,15,29,18.30
2017,06,27,15,30,18.20
2017,06,27,15,31,18.20
2017,06,27,15,32,18.20
2017,06,27,15,33,18.20
2017,06,27,15,34,18.20
2017,06,27,15,35,18.20
2017,06,27,15,36,18.20
2017,06,27,15,37,18.20
2017,06,27,15,38,18.30
2017,06,27,15,39,18.30
2017,06,27,15,40,18.30
2017,06,27,15,41,18.30
2017,06,27,15,42,18.20
2017,06,27,15,43,18.20
2017,06,27,15,44,18.30
2017,06,27,15,45,18.30
2017,06,27,15,46,18.30
2017,06,27,15,47,18.30
2017,06,27,15,48,18.40
2017,06,27,15,49,18.40
2017,06,27,15,50,18.40
2017,06,27,15,51,18.30
2017,06,27,15,52,18.20
2017,06,27,15,53,18.30
2017,06,27,15,54,18.40
2017,06,27,15,55,18.50
2017,06,27,15,56,18.70
2017,06,27,15,57,18.60
2017,06,27,15,58,18.70
2017,06,27,15,59,18.70
2017,06,27,16,00,18.70
2017,06,27,16,01,18.50
2017,06,27,16,02,18.40
2017,06,27,16,03,18.30
2017,06,27,16,04,18.30
2017,06,27,16,05,18.40
2017,06,27,16,06,18.40
2017,06,27,16,07,18.40
2017,06,27,16,08,18.50
2017,06,27,16,09,18.50
2017,06,27,16,10,18.60
2017,06,27,16,11,18.50
2017,06,27,16,12,18.50
2017,06,27,16,13,18.60
2017,06,27,16,14,18.60
2017,06,27,16,15,18.60
2017,06,27,16,16,18.60
2017,06,27,16,17,18.60
2017,06,27,16,18,18.60
2017,06,27,16,19,18.60
2017,06,27,16,20,18.50
2017,06,27,16,21,18.50
2017,06,27,16,22,18.50
2017,06,27,16,23,18.50
2017,06,27,16,24,18.40
2017,06,27,16,25,18.30
2017,06,27,16,26,18.20
2017,06,27,16,27,18.20
2017,06,27,16,28,18.20
2017,06,27,16,29,18.20
2017,06,27,16,30,18.20
2017,06,27,16,31,18.20
2017,06,27,16,32,18.20
2017,06,27,16,33,18.20
2017,06,27,16,34,18.20
2017,06,27,16,35,18.20
2017,06,27,16,36,18.20
2017,06,27,16,37,18.20
2017,06,27,16,38,18.40
2017,06,27,16,39,18.40
2017,06,27,16,40,18.40
2017,06,27,16,41,18.50
2017,06,27,16,42,18.60
2017,06,27,16,43,18.60
2017,06,27,16,44,18.70
2017,06,27,16,45,18.80
2017,06,27,16,46,18.90
2017,06,27,16,47,18.90
2017,06,27,16,48,18.90
2017,06,27,16,49,18.90
2017,06,27,16,50,19.00
2017,06,27,16,51,19.10
2017,06,27,16,52,19.10
2017,06,27,16,53,19.10
2017,06,27,16,54,19.10
2017,06,27,16,55,19.30
2017,06,27,16,56,19.40
2017,06,27,16,57,19.40
2017,06,27,16,58,19.40
2017,06,27,16,59,19.50
2017,06,27,17,00,19.50
2017,06,27,17,01,19.60
2017,06,27,17,02,19.60
2017,06,27,17,03,19.70
2017,06,27,17,04,19.60
2017,06,27,17,05,19.50
2017,06,27,17,06,19.40
2017,06,27,17,07,19.30
2017,06,27,17,08,19.30
2017,06,27,17,09,19.20
2017,06,27,17,10,19.30
2017,06,27,17,11,19.30
2017,06,27,17,12,19.30
2017,06,27,17,13,19.30
2017,06,27,17,14,19.20
2017,06,27,17,15,19.30
2017,06,27,17,16,19.30
2017,06,27,17,17,19.30
2017,06,27,17,18,19.40
2017,06,27,17,19,19.40
2017,06,27,17,20,19.40
2017,06,27,17,21,19.40
2017,06,27,17,22,19.40
2017,06,27,17,23,19.50
2017,06,27,17,24,19.60
2017,06,27,17,25,19.70
2017,06,27,17,26,19.80
2017,06,27,17,27,19.90
2017,06,27,17,28,19.90
2017,06,27,17,29,19.70
2017,06,27,17,30,19.60
2017,06,27,17,31,19.50
2017,06,27,17,32,19.40
2017,06,27,17,33,19.30
2017,06,27,17,34,19.20
2017,06,27,17,35,19.00
2017,06,27,17,36,18.90
2017,06,27,17,37,18.80
2017,06,27,17,38,18.70
2017,06,27,17,39,18.70
2017,06,27,17,40,18.70
2017,06,27,17,41,18.80
2017,06,27,17,42,18.90
2017,06,27,17,43,19.00
2017,06,27,17,44,19.10
2017,06,27,17,45,19.00
2017,06,27,17,46,18.90
2017,06,27,17,47,18.90
2017,06,27,17,48,18.80
2017,06,27,17,49,18.80
2017,06,27,17,50,18.70
2017,06,27,17,51,18.70
2017,06,27,17,52,18.70
2017,06,27,17,53,18.60
2017,06,27,17,54,18.60
2017,06,27,17,55,18.60
2017,06,27,17,56,18.60
2017,06,27,17,57,18.60
2017,06,27,17,58,18.70
2017,06,27,17,59,18.70
2017,06,27,18,00,18.70
2017,06,27,18,01,18.80
2017,06,27,18,02,18.80
2017,06,27,18,03,18.80
2017,06,27,18,04,18.80
2017,06,27,18,05,18.80
2017,06,27,18,06,18.80
2017,06,27,18,07,18.80
2017,06,27,18,08,18.70
2017,06,27,18,09,18.70
2017,06,27,18,10,18.60
2017,06,27,18,11,18.60
2017,06,27,18,12,18.60
2017,06,27,18,13,18.60
2017,06,27,18,14,18.60
2017,06,27,18,15,18.60
2017,06,27,18,16,18.60
2017,06,27,18,17,18.60
2017,06,27,18,18,18.70
2017,06,27,18,19,18.70
2017,06,27,18,20,18.70
2017,06,27,18,21,18.70
2017,06,27,18,22,18.80
2017,06,27,18,23,18.80
2017,06,27,18,24,18.80
2017,06,27,18,25,18.80
2017,06,27,18,26,18.80
2017,06,27,18,27,18.90
2017,06,27,18,28,18.90
2017,06,27,18,29,18.90
2017,06,27,18,30,18.90
2017,06,27,18,31,18.80
2017,06,27,18,32,18.80
2017,06,27,18,33,18.80
2017,06,27,18,34,18.80
2017,06,27,18,35,18.80
2017,06,27,18,36,18.90
2017,06,27,18,37,18.90
2017,06,27,18,38,18.90
2017,06,27,18,39,18.90
2017,06,27,18,40,18.90
2017,06,27,18,41,18.90
2017,06,27,18,42,19.00
2017,06,27,18,43,19.10
2017,06,27,18,44,19.10
2017,06,27,18,45,19.10
2017,06,27,18,46,19.10
2017,06,27,18,47,19.20
2017,06,27,18,48,19.30
2017,06,27,18,49,19.40
2017,06,27,18,50,19.50
2017,06,27,18,51,19.50
2017,06,27,18,52,19.50
2017,06,27,18,53,19.60
2017,06,27,18,54,19.70
2017,06,27,18,55,19.80
2017,06,27,18,56,19.90
2017,06,27,18,57,19.90
2017,06,27,18,58,20.00
2017,06,27,18,59,20.10
2017,06,27,19,00,20.20
2017,06,27,19,01,20.20
2017,06,27,19,02,20.30
2017,06,27,19,03,20.30
2017,06,27,19,04,20.40
2017,06,27,19,05,20.50
2017,06,27,19,06,20.50
2017,06,27,19,07,20.50
2017,06,27,19,08,20.50
2017,06,27,19,09,20.60
2017,06,27,19,10,20.60
2017,06,27,19,11,20.40
2017,06,27,19,12,20.40
2017,06,27,19,13,20.40
2017,06,27,19,14,20.30
2017,06,27,19,15,20.30
2017,06,27,19,16,20.30
2017,06,27,19,17,20.30
2017,06,27,19,18,20.30
2017,06,27,19,19,20.30
2017,06,27,19,20,20.30
2017,06,27,19,21,20.30
2017,06,27,19,22,20.30
2017,06,27,19,23,20.30
